Location: Most
(50.5133°N, 13.6207°E)
Time: 09:53:51
(UTC+01:00)

Oscar 11 - Pass Details

Date: 05 December 2022
Orbit: 611 x 621 km, 97.6° (Epoch: 28 January)

Event Time Altitude Azimuth Distance (km) Brightness Sun altitude
Rises 17:12:50 0° 216° (SW) 2,880 11.6 -10.6°
Reaches altitude 10° 17:16:07 10° 244° (WSW) 1,979 11.2 -11.1°
Maximum altitude 17:18:13 13° 273° (W) 1,771 10.5 -11.4°
Drops below altitude 10° 17:20:19 10° 302° (WNW) 1,984 10.2 -11.7°
Sets 17:23:38 0° 330° (NNW) 2,894 10.6 -12.2°
